Theta_e
352 354 354 354 354 354 353 352 350 347 343 340 339 337 335 335 333 333 334 336 337 336 334 332 331 331 333 333 333 333 334 334 335 334 333 333 334 335 336 336 337 337
352 354 354 354 354 353 353 351 350 346 341 338 337 335 335 334 334 333 334 337 337 336 334 332 331 330 332 333 332 332 332 332 333 333 332 333 334 335 336 337 337 337
353 354 354 354 353 352 352 351 349 344 339 337 336 335 335 334 334 333 333 336 337 336 334 332 331 331 331 332 331 332 332 332 333 333 332 332 333 333 335 336 336 337
353 354 354 353 352 351 352 350 346 342 338 336 335 334 334 334 334 334 333 335 336 335 334 333 333 332 331 332 332 332 332 332 332 332 332 331 331 331 332 333 334 334
353 354 353 351 350 351 351 348 343 340 337 335 334 334 334 334 335 335 334 334 336 335 334 333 333 333 332 332 332 332 332 332 332 331 331 332 331 331 331 331 331 332
353 353 351 350 350 351 350 344 339 338 335 334 333 333 334 336 336 335 334 334 335 334 333 333 332 333 333 332 332 332 332 332 332 331 330 331 332 331 330 329 330 331
353 352 351 349 350 351 348 341 336 335 334 332 332 333 335 336 335 334 334 334 334 334 333 332 331 332 333 333 332 332 332 332 331 331 330 330 329 329 329 329 330 330
351 351 350 350 350 349 345 339 335 334 333 332 332 334 335 335 335 334 333 333 333 332 332 331 331 332 332 332 333 333 332 331 330 330 330 329 328 329 329 329 329 329
349 349 350 349 349 347 342 336 334 334 332 332 332 333 334 334 334 333 332 332 331 331 331 331 331 332 333 333 333 333 332 330 329 329 329 330 329 329 329 328 328 328
348 349 349 347 347 344 340 335 334 333 333 332 331 332 333 333 333 332 331 330 331 330 331 332 332 333 333 333 334 332 331 330 330 330 330 329 329 329 329 328 327 328
348 349 347 345 345 342 338 336 334 333 333 331 331 332 331 330 330 330 330 330 330 330 331 332 333 333 333 334 333 332 331 331 331 330 329 329 329 329 328 327 327 327
347 347 346 345 344 342 339 336 334 333 333 331 331 329 326 324 324 326 329 330 329 331 331 332 332 333 333 333 333 332 331 330 330 330 329 329 329 328 327 327 327 327
347 346 345 344 345 343 339 336 334 333 332 331 330 325 322 323 323 323 328 330 330 330 331 331 332 333 332 332 332 331 331 330 330 330 330 330 329 327 327 327 327 327
347 346 344 344 344 341 337 336 334 333 332 332 329 324 323 327 326 325 327 331 332 330 330 331 331 332 332 332 333 332 332 332 330 330 330 330 329 327 327 327 327 327
346 345 344 343 342 339 337 335 334 333 333 331 328 326 327 329 329 327 327 331 334 332 330 330 331 332 332 332 333 333 333 332 330 329 330 330 329 328 327 327 326 326
344 344 343 342 340 339 337 335 333 334 333 329 327 328 329 329 329 327 326 330 335 333 331 330 330 331 332 333 333 333 331 330 329 330 330 330 330 330 329 327 326 325
342 342 342 342 340 338 338 335 333 334 331 329 328 328 330 331 328 325 326 331 334 335 333 331 330 332 333 333 332 330 329 330 330 331 332 331 331 330 329 329 327 326
342 341 341 341 340 338 337 334 333 333 329 326 328 329 332 333 328 325 329 334 335 335 334 332 331 332 333 333 331 329 329 330 331 332 332 332 331 330 329 329 329 329
342 341 340 341 340 338 335 333 331 330 326 324 327 330 332 332 327 326 331 335 335 335 334 332 331 332 333 332 330 329 330 330 331 332 332 332 332 331 332 332 332 331
342 341 341 341 339 336 334 332 329 328 326 326 329 330 330 329 327 327 331 334 335 335 334 333 332 332 333 333 331 330 331 331 331 331 332 333 332 333 333 333 332 331
342 341 340 340 337 335 333 332 329 327 327 329 331 331 330 329 329 332 333 334 335 335 334 333 332 332 334 334 333 332 331 331 331 331 332 332 332 333 333 332 331 331
341 340 340 339 336 334 334 332 330 328 329 330 331 332 331 331 333 335 335 335 335 334 334 333 333 333 334 334 334 334 332 331 331 331 331 332 332 333 333 332 331 331
341 339 339 338 336 334 333 332 330 330 330 332 332 333 333 333 334 335 335 335 334 334 334 334 334 334 334 334 334 333 332 331 331 332 332 331 330 331 331 331 330 329
340 339 339 338 336 334 333 332 333 332 333 333 333 333 334 334 334 335 336 335 335 335 335 335 335 335 335 334 334 333 332 332 332 332 330 328 328 329 330 329 328 327
340 338 338 337 336 334 332 333 334 334 334 334 334 334 335 335 335 335 336 336 336 336 335 335 335 335 334 334 333 333 332 332 332 331 328 326 327 328 329 328 326 325
339 338 337 336 335 333 332 334 335 335 335 335 335 335 335 336 336 336 336 337 336 335 334 334 334 333 333 333 333 333 332 331 330 328 326 327 328 329 329 329 327 325
Wind_Speed
34 33 31 29 28 26 25 25 25 25 25 25 25 24 23 21 18 18 19 19 19 17 14 12 12 12 11 11 10 9 9 9 8 8 9 8 7 7 7 8 8 9
35 33 31 29 28 26 25 25 25 26 26 25 24 22 21 19 18 18 19 19 20 18 15 13 12 11 11 11 10 10 10 9 9 9 10 9 9 8 9 9 10 11
36 34 32 30 29 27 26 26 26 26 26 25 24 22 20 19 18 18 18 19 19 18 16 14 13 12 11 11 11 10 10 10 10 10 9 9 9 9 9 9 10 11
37 34 32 30 29 28 27 27 27 27 27 25 23 22 20 20 19 19 18 18 19 19 17 15 14 14 13 12 11 11 11 11 11 11 10 10 10 10 10 10 10 10
37 35 33 31 31 30 29 28 28 28 27 25 23 22 21 21 21 20 19 19 19 19 17 16 15 15 14 13 13 13 12 12 12 12 12 11 11 11 10 11 11 11
37 35 34 33 32 31 29 29 28 28 28 26 24 24 23 22 22 21 20 20 20 20 18 17 16 16 16 15 15 14 14 13 13 14 14 12 11 11 12 13 14 14
38 36 35 34 32 31 30 30 30 29 28 26 25 24 23 23 23 21 20 20 21 20 19 18 17 17 16 16 16 15 15 14 15 15 14 13 12 12 13 14 15 14
36 35 35 34 33 32 32 32 30 29 27 26 24 24 22 22 21 20 19 20 20 20 19 18 18 17 17 17 17 16 16 16 16 16 15 14 14 14 14 14 14 13
31 33 33 34 34 34 33 32 30 28 27 25 24 22 21 20 19 19 19 19 20 20 19 18 18 17 18 18 17 16 16 16 16 17 17 16 15 15 14 14 13 13
29 34 34 35 35 35 34 33 30 28 27 26 23 22 20 18 17 18 18 19 20 20 19 19 18 18 18 18 18 17 16 17 17 18 18 17 16 16 14 13 13 13
34 37 38 37 36 36 37 35 32 30 28 26 23 21 18 15 15 17 18 20 21 21 20 19 18 18 19 20 19 18 18 18 19 18 18 18 17 16 15 14 13 13
41 42 41 39 39 40 40 38 34 31 29 27 25 22 19 17 16 16 19 22 22 21 20 20 19 20 21 21 20 19 19 19 19 19 18 18 18 17 15 14 14 14
44 46 44 42 42 42 42 40 36 32 30 29 27 24 21 19 15 15 22 25 24 23 22 21 21 22 22 22 22 21 21 21 20 20 20 19 19 17 16 15 15 16
47 50 47 45 43 42 41 40 37 34 32 29 28 25 22 18 14 18 24 28 28 26 24 23 23 24 25 24 24 23 23 23 22 22 22 21 19 18 17 16 17 18
48 49 47 45 43 38 35 35 35 33 31 30 29 25 20 15 15 21 26 30 32 29 26 25 26 27 27 26 26 25 24 24 24 24 23 21 20 19 18 18 19 20
47 47 44 39 33 28 27 30 30 30 31 31 28 23 18 15 18 25 29 32 35 33 29 28 29 29 28 27 25 24 24 24 25 24 23 22 21 20 19 19 20 22
43 44 42 34 27 28 32 35 32 30 31 29 26 24 20 18 23 29 33 35 36 35 32 31 31 31 28 26 25 24 23 24 24 23 23 22 22 21 21 21 22 23
41 41 40 33 30 32 38 38 34 32 32 30 29 28 24 25 29 33 35 37 36 35 35 34 32 31 28 26 25 24 23 24 24 24 23 23 23 23 23 24 25 24
40 40 38 34 31 33 36 36 33 33 37 37 34 28 25 29 33 35 37 37 34 35 36 35 34 31 28 27 26 25 24 24 25 25 25 25 25 25 26 26 26 24
39 39 35 32 32 33 37 37 35 36 39 38 33 27 25 29 32 36 39 37 34 36 37 35 34 31 29 27 27 27 26 25 26 27 27 27 27 28 28 26 26 26
39 36 30 30 33 35 38 40 38 38 39 38 34 30 29 31 32 34 36 35 35 35 35 36 35 32 30 29 28 28 27 27 28 28 28 29 28 29 28 26 27 28
38 32 26 28 34 35 37 40 39 39 39 39 37 33 30 30 29 28 30 33 34 34 33 35 35 33 31 29 29 29 28 28 28 28 29 27 25 25 26 25 25 24
33 30 25 27 30 33 38 40 38 37 36 35 34 31 28 28 27 25 25 28 30 32 32 34 35 33 30 29 29 28 26 25 26 24 22 19 19 23 25 24 22 19
30 29 26 26 29 35 40 37 32 32 33 32 31 28 24 25 24 21 20 22 25 26 25 25 26 26 26 26 25 23 21 20 20 17 13 12 16 22 24 22 18 14
29 28 28 28 32 39 41 34 29 29 28 26 25 22 19 20 19 16 16 17 17 16 16 17 16 18 23 24 22 20 18 16 16 15 11 12 18 21 21 18 14 11
28 29 29 30 36 41 39 33 27 22 19 17 18 18 17 18 16 14 14 13 11 11 14 15 14 15 19 20 19 19 18 17 16 15 13 15 18 18 15 12 10 10
Wind_Direction
226 226 227 229 231 233 235 233 228 222 216 210 205 202 202 204 203 203 204 203 203 205 207 209 209 209 209 209 210 210 213 218 219 220 221 226 234 237 243 253 254 256
225 225 226 227 229 232 234 233 230 223 217 213 209 208 209 208 204 202 204 204 203 205 207 207 207 209 210 211 211 212 216 222 226 230 231 234 238 241 247 254 257 261
223 223 223 225 227 230 232 231 227 222 217 214 212 212 212 209 205 205 207 206 205 206 208 210 210 210 210 212 213 216 223 230 234 235 235 236 242 249 256 259 263 268
221 221 222 224 226 229 230 228 223 218 215 213 213 213 212 210 208 208 210 209 208 209 210 213 216 216 216 218 219 224 232 239 244 245 244 248 255 261 264 267 272 276
220 220 220 223 226 226 224 222 218 216 214 213 213 212 209 208 208 210 213 212 211 212 215 218 221 222 224 226 227 232 239 246 251 252 253 258 262 264 267 272 278 280
219 219 219 223 225 223 220 217 215 214 212 212 211 209 206 205 208 211 213 214 214 215 219 223 225 225 229 233 235 238 243 248 252 253 255 260 261 263 269 274 278 280
217 216 217 221 222 219 217 215 213 211 209 208 208 206 204 204 206 210 213 215 217 220 224 226 227 229 235 239 240 243 247 251 253 255 257 261 263 266 271 275 277 279
212 212 215 218 218 215 215 214 212 209 207 205 204 205 205 205 207 210 214 215 219 224 227 227 228 233 240 243 243 246 251 254 254 255 259 263 267 272 276 279 281 282
206 213 215 216 215 213 213 213 210 208 205 202 201 202 204 208 211 214 215 217 220 224 225 226 231 238 243 246 247 249 251 253 252 255 261 265 271 277 279 280 282 284
207 217 216 213 213 212 212 211 208 206 204 201 199 199 201 206 216 220 219 220 221 222 225 229 234 241 247 249 249 249 249 251 254 257 262 268 273 277 278 279 282 284
215 220 217 212 209 209 209 210 207 203 201 199 195 193 195 203 217 227 228 226 225 224 228 233 237 243 249 251 250 249 249 251 256 260 263 269 272 273 273 273 277 281
216 218 215 211 209 208 207 208 205 200 199 196 190 187 191 199 209 228 237 235 231 230 232 235 240 245 249 251 251 250 251 254 257 260 263 266 268 268 267 267 270 275
214 218 215 212 212 209 206 206 202 197 197 196 189 186 192 197 202 224 240 242 239 236 237 238 242 247 249 251 252 252 254 256 257 259 262 262 262 261 260 261 264 268
214 219 217 214 213 209 205 204 202 196 193 194 193 190 194 202 215 230 238 247 248 241 239 241 243 247 250 251 252 253 254 256 257 258 260 260 260 259 258 260 263 264
213 216 215 212 209 205 200 200 199 192 189 195 199 199 199 207 230 237 235 244 250 246 241 242 244 247 250 251 254 255 254 255 256 257 259 259 259 261 262 264 264 264
212 213 212 209 199 190 193 198 195 188 189 197 202 206 210 213 226 232 232 240 248 247 242 242 244 246 249 251 253 254 254 255 255 256 257 258 260 265 268 269 268 267
210 211 211 204 187 183 195 197 192 188 189 195 207 213 218 226 226 225 231 240 245 246 244 242 244 246 248 251 251 250 250 251 253 256 258 260 262 265 268 271 272 271
209 208 206 200 187 188 192 189 189 191 186 193 214 217 216 228 228 224 232 241 244 246 244 242 243 245 247 250 248 246 247 248 251 256 259 262 264 266 269 271 270 269
207 206 202 196 189 186 185 182 186 187 184 195 214 215 211 221 225 226 235 241 243 244 243 242 244 244 245 248 247 246 247 247 251 256 261 265 267 269 271 271 269 268
206 205 200 193 188 185 184 185 185 183 185 198 213 215 212 220 226 231 238 241 243 244 243 243 244 243 245 248 248 248 248 249 252 257 261 266 269 271 272 275 278 277
205 203 195 189 190 188 187 190 189 185 188 200 212 218 220 224 230 236 239 240 242 244 244 245 245 244 246 249 251 252 252 251 253 257 262 266 268 271 274 276 277 276
202 197 187 187 191 190 191 195 194 193 196 204 213 220 224 226 231 237 239 240 242 243 244 246 247 247 248 252 256 256 254 253 256 261 265 268 273 278 280 277 272 269
196 190 182 184 188 190 196 200 197 197 202 207 211 216 220 224 229 234 236 239 242 242 244 247 250 252 254 256 258 258 257 259 264 266 269 279 292 293 287 278 272 267
191 187 181 181 186 194 200 201 196 197 203 208 210 213 218 222 227 231 235 240 242 242 244 247 252 259 261 260 260 261 262 265 265 262 266 282 289 285 280 274 267 261
188 185 182 183 191 199 202 199 197 201 207 210 213 217 224 226 226 228 233 239 240 240 246 252 258 265 266 265 265 263 261 257 248 242 253 271 270 267 268 266 260 255
187 186 185 186 194 200 200 199 201 204 207 214 221 226 230 229 225 224 229 234 232 237 252 258 259 267 274 278 273 261 252 241 231 237 258 266 260 256 254 251 249 252